Regional Weather Roundup
Issued by NWS

Home | Current Version | Previous Version | Graphics & Text | Print | Product List | Glossary On
Versions: 1 2 3 4 5 6 7 8 9 10 11 12 13 14 15 16 17 18 19 20 21 22 23 24 25 26 27 28 29 30 31 32 33 34 35 36 37 38 39 40 41 42 43 44 45 46 47 48 49 50
000
ASUS43 KLOT 011358
RWRIL

ILLINOIS REGIONAL WEATHER ROUNDUP
NATIONAL WEATHER SERVICE CHICAGO/ROMEOVILLE IL
800 AM CST SUN FEB 01 2015

NOTE: "FAIR" INDICATES FEW OR NO CLOUDS BELOW 12,000 FEET WITH NO
SIGNIFICANT WEATHER AND/OR OBSTRUCTIONS TO VISIBILITY.

* THESE STATIONS ARE NOT UNDER NWS QUALITY CONTROL. THEY ALSO MAY NOT
  REPORT WEATHER SUCH AS PRECIPITATION OR FOG.

ILZ001-002-007-009-015-016-024-011500-
NORTHWEST ILLINOIS

CITY           SKY/WX    TMP DP  RH WIND       PRES   REMARKS
MOLINE         SNOW      32  30  92 NE16      29.84S VSB 1/2 WCI  21
$$

ILZ003-004-008-010-011-017-018-011500-
NORTH CENTRAL ILLINOIS

CITY           SKY/WX    TMP DP  RH WIND       PRES   REMARKS
ROCKFORD       NOT AVBL
$$

ILZ005-006-012>014-019>023-011500-
NORTHEAST ILLINOIS

CITY           SKY/WX    TMP DP  RH WIND       PRES   REMARKS
CHICAGO-OHARE  SNOW      30  29  96 NE15      29.93F VSB 1/2 WCI  19
CHICAGO-MIDWAY SNOW      33  31  92 E12       29.93F VSB 1/2 WCI  24
AURORA         SNOW      32  28  85 NE16G26   29.90F VSB 1/4 WCI  21
WAUKEGAN       NOT AVBL
DUPAGE AIRPORT HVY SNOW  31  29  92 NE17      29.91F VSB 1/4 WCI  19
WHEELING       SNOW      29  27  92 NE16G24   29.98F VSB 1/4 WCI  17
NORTHERLY ISL    N/A     31  31 100 E18         N/A  WCI  19
$$

LMZ740>746-011500-
SOUTHERN LAKE MICHIGAN

STATION/POSITION SKY/WX   TEMP    WIND        PRES    VSBY  WAVE
                          AIR SEA DIR/SP/G                  HT/PER
                          (F)     (DEG/KT/KT) (MB)    (MI)  (FT/S)
WAUKEGAN HARBOR            28      60/ 23/ 33   N/A
HARRISON CRIB              31      70/ 21/ 25   N/A
BURNHAM HARBOR             31      60/ 16       N/A
CALUMET HARBOR             31      60/ 13/ 15   N/A
MICHIGAN CITY              30      60/ 10/ 13   N/A
$$

ILZ025>027-034>036-040-047-049-050-058-095>099-011500-
WEST-CENTRAL ILLINOIS

CITY           SKY/WX    TMP DP  RH WIND       PRES   REMARKS
QUINCY         LGT SNOW  34  32  93 SE6       29.75F VSB 3/4 WCI  29
$$

ILZ028>032-037-038-041>044-048-051>054-059>061-011500-
CENTRAL ILLINOIS

CITY           SKY/WX    TMP DP  RH WIND       PRES   REMARKS
DECATUR        SNOW      33  32  96 SE14      29.82F VSB 1/2 WCI  23
PEORIA         NOT AVBL
SPRINGFIELD    LGT SNOW  34  32  92 SE7       29.79F VSB 1   WCI  28
TAYLORVILLE    NOT AVBL
$$

ILZ033-039-045-046-055>057-062-063-011500-
EAST-CENTRAL ILLINOIS

CITY           SKY/WX    TMP DP  RH WIND       PRES   REMARKS
CHAMPAIGN      LGT SNOW  32  31  96 E18       29.83F VSB 3/4 WCI  20
MATTOON        LGT SNOW  32  30  92 SE15      29.82F FOG     WCI  22
$$

ILZ079-100>102-011500-
SOUTHWEST ILLINOIS

CITY           SKY/WX    TMP DP  RH WIND       PRES   REMARKS
ALTON          LGT RAIN  34  34 100 SE12      29.79F WCI  25
BELLEVILLE     LGT RAIN  36  36 100 SE9       29.80S FOG     WCI  29
CAHOKIA*       LGT RAIN  36  35  96 SE7       29.79F FOG     WCI  30
$$

ILZ064>066-069>071-074>076-080>082-084>086-088>090-092>094-011500-
SOUTH-CENTRAL ILLINOIS

CITY           SKY/WX    TMP DP  RH WIND       PRES   REMARKS
CARBONDALE     HVY RAIN  41  38  89 W9        29.83R FOG
MARION         LGT RAIN  43  39  87 S16       29.80F
$$

ILZ067-068-072-073-078-083-087-091-011500-
SOUTHEAST ILLINOIS

CITY           SKY/WX    TMP DP  RH WIND       PRES   REMARKS
LAWRENCEVILLE  RAIN      35  32  88 E9        29.87F FOG     WCI  28
$$

ABBREVIATIONS USED IN REMARKS
   TC - TEMPERATURE IN CELSIUS
  WCI - WIND CHILL INDEX
   HX - HEAT INDEX
  VSB - VISIBILITY
$$




USA.gov is the U.S. government's official web portal to all federal, state and local government web resources and services.